| time (UTC) | temp C | wind direction | speed KPH | gust KPH | rain 1hr cm | rain 24hr cm | rain mn cm | humidity % | barometer mb |
| 20260502170204 | 13 | 322 | 12.9 | 22.5 | 0.00 | 0.00 | 0.00 | 36 | 1014.2 |
| 20260502163705 | 13 | 356 | 8.0 | 14.5 | 0.00 | 0.00 | 0.00 | 39 | 1014.7 |
| 20260502162705 | 12 | 14 | 8.0 | 22.5 | 0.00 | 0.00 | 0.00 | 38 | 1014.7 |
| 20260502162204 | 12 | 320 | 12.9 | 22.5 | 0.00 | 0.00 | 0.00 | 38 | 1014.8 |
| 20260502161705 | 12 | 301 | 9.7 | 27.4 | 0.00 | 0.00 | 0.00 | 37 | 1014.9 |
| 20260502161205 | 12 | 322 | 8.0 | 27.4 | 0.00 | 0.00 | 0.00 | 38 | 1015.0 |
| 20260502160704 | 13 | 331 | 9.7 | 24.1 | 0.00 | 0.00 | 0.00 | 38 | 1015.2 |
| 20260502160205 | 13 | 284 | 9.7 | 22.5 | 0.00 | 0.00 | 0.00 | 38 | 1015.0 |
| 20260502151704 | 11 | 20 | 3.2 | 14.5 | 0.00 | 0.00 | 0.00 | 44 | 1015.2 |
| 20260502151205 | 11 | 346 | 6.4 | 14.5 | 0.00 | 0.00 | 0.00 | 42 | 1015.2 |
| 20260502150704 | 11 | 51 | 6.4 | 14.5 | 0.00 | 0.00 | 0.00 | 45 | 1015.3 |
| 20260502150204 | 11 | 353 | 4.8 | 16.1 | 0.00 | 0.00 | 0.00 | 45 | 1015.3 |
| 20260502130705 | 10 | 332 | 3.2 | 14.5 | 0.00 | 0.00 | 0.00 | 53 | 1015.3 |
| 20260502130204 | 10 | 324 | 8.0 | 16.1 | 0.00 | 0.00 | 0.00 | 53 | 1015.2 |
| 20260502123705 | 10 | 331 | 9.7 | 19.3 | 0.00 | 0.00 | 0.00 | 54 | 1015.1 |
| 20260502123204 | 9 | 313 | 6.4 | 19.3 | 0.00 | 0.00 | 0.00 | 54 | 1015.1 |
| 20260502122705 | 9 | 334 | 11.3 | 22.5 | 0.00 | 0.00 | 0.00 | 54 | 1015.1 |
| 20260502122205 | 9 | 355 | 8.0 | 24.1 | 0.00 | 0.00 | 0.00 | 54 | 1015.1 |
| 20260502121704 | 9 | 319 | 12.9 | 24.1 | 0.00 | 0.00 | 0.00 | 53 | 1015.0 |
| 20260502121205 | 9 | 297 | 14.5 | 24.1 | 0.00 | 0.00 | 0.00 | 53 | 1015.0 |
| 20260502120704 | 9 | 320 | 14.5 | 22.5 | 0.00 | 0.00 | 0.00 | 53 | 1015.0 |
| 20260502120204 | 9 | 325 | 11.3 | 22.5 | 0.00 | 0.00 | 0.00 | 54 | 1014.9 |
| 20260502115705 | 9 | 315 | 12.9 | 29.0 | 0.00 | 0.00 | 0.00 | 53 | 1014.7 |
| 20260502115205 | 9 | 335 | 12.9 | 29.0 | 0.00 | 0.00 | 0.00 | 54 | 1014.7 |
| 20260502114704 | 9 | 348 | 11.3 | 20.9 | 0.00 | 0.00 | 0.00 | 54 | 1014.8 |
| 20260502114204 | 9 | 322 | 11.3 | 25.7 | 0.00 | 0.00 | 0.00 | 54 | 1014.7 |
| 20260502113205 | 9 | 321 | 11.3 | 25.7 | 0.00 | 0.00 | 0.00 | 53 | 1014.4 |
| 20260502112705 | 9 | 316 | 12.9 | 22.5 | 0.00 | 0.00 | 0.00 | 52 | 1014.6 |
| 20260502112204 | 9 | 338 | 11.3 | 22.5 | 0.00 | 0.00 | 0.00 | 52 | 1014.6 |
| 20260502111704 | 9 | 323 | 12.9 | 24.1 | 0.00 | 0.00 | 0.00 | 52 | 1014.5 |
| 20260502111205 | 10 | 323 | 9.7 | 25.7 | 0.00 | 0.00 | 0.00 | 52 | 1014.5 |
| 20260502110705 | 10 | 304 | 16.1 | 25.7 | 0.00 | 0.00 | 0.00 | 50 | 1014.5 |
| 20260502110204 | 10 | 323 | 11.3 | 32.2 | 0.00 | 0.00 | 0.00 | 50 | 1014.4 |
| 20260502105705 | 10 | 351 | 11.3 | 32.2 | 0.00 | 0.00 | 0.00 | 49 | 1014.4 |
| 20260502105205 | 10 | 303 | 14.5 | 25.7 | 0.00 | 0.00 | 0.00 | 50 | 1014.4 |
| 20260502104705 | 10 | 309 | 14.5 | 25.7 | 0.00 | 0.00 | 0.00 | 49 | 1014.5 |
| 20260502104204 | 10 | 331 | 14.5 | 24.1 | 0.00 | 0.00 | 0.00 | 50 | 1014.5 |
| 20260502103704 | 10 | 334 | 16.1 | 24.1 | 0.00 | 0.00 | 0.00 | 50 | 1014.5 |
| 20260502103204 | 10 | 305 | 11.3 | 20.9 | 0.00 | 0.00 | 0.00 | 52 | 1014.6 |
| 20260502102705 | 10 | 317 | 11.3 | 19.3 | 0.00 | 0.00 | 0.00 | 52 | 1014.6 |
| 20260502102205 | 10 | 313 | 11.3 | 20.9 | 0.00 | 0.00 | 0.00 | 51 | 1014.5 |
| 20260502101704 | 10 | 305 | 14.5 | 20.9 | 0.00 | 0.00 | 0.00 | 51 | 1014.5 |
| 20260502101204 | 10 | 317 | 11.3 | 25.7 | 0.00 | 0.00 | 0.00 | 50 | 1014.5 |
| 20260502100705 | 10 | 335 | 14.5 | 25.7 | 0.00 | 0.00 | 0.00 | 50 | 1014.7 |
| 20260502100204 | 10 | 319 | 9.7 | 22.5 | 0.00 | 0.00 | 0.00 | 50 | 1014.6 |
| 20260502091205 | 11 | 342 | 11.3 | 22.5 | 0.00 | 0.00 | 0.00 | 52 | 1014.5 |
| 20260502090704 | 10 | 344 | 11.3 | 24.1 | 0.00 | 0.00 | 0.00 | 55 | 1014.6 |
| 20260502090204 | 10 | 310 | 11.3 | 24.1 | 0.00 | 0.00 | 0.00 | 56 | 1014.6 |
| 20260502071204 | 11 | 329 | 14.5 | 25.7 | 0.00 | 0.00 | 0.00 | 60 | 1013.9 |
| 20260502070704 | 11 | 327 | 11.3 | 25.7 | 0.00 | 0.00 | 0.00 | 60 | 1013.9 |
| 20260502070205 | 11 | 320 | 14.5 | 25.7 | 0.00 | 0.00 | 0.00 | 60 | 1014.0 |
| 20260502065205 | 11 | 330 | 11.3 | 25.7 | 0.00 | 0.00 | 0.00 | 60 | 1014.0 |
| 20260502064705 | 11 | 311 | 11.3 | 22.5 | 0.00 | 0.00 | 0.00 | 59 | 1013.9 |
| 20260502064204 | 11 | 310 | 9.7 | 16.1 | 0.00 | 0.00 | 0.00 | 59 | 1014.0 |
| 20260502063705 | 11 | 308 | 9.7 | 20.9 | 0.00 | 0.00 | 0.00 | 59 | 1014.0 |
| 20260502063205 | 11 | 302 | 11.3 | 20.9 | 0.00 | 0.00 | 0.00 | 59 | 1014.2 |
| 20260502062705 | 11 | 311 | 11.3 | 19.3 | 0.00 | 0.00 | 0.00 | 59 | 1014.2 |
| 20260502062204 | 11 | 305 | 9.7 | 19.3 | 0.00 | 0.00 | 0.00 | 59 | 1014.2 |
| 20260502061704 | 11 | 330 | 8.0 | 19.3 | 0.00 | 0.00 | 0.00 | 58 | 1014.3 |
| 20260502061205 | 11 | 303 | 11.3 | 19.3 | 0.00 | 0.00 | 0.00 | 58 | 1014.4 |
| 20260502060204 | 12 | 322 | 11.3 | 20.9 | 0.00 | 0.00 | 0.00 | 57 | 1014.5 |
| 20260502055704 | 12 | 330 | 9.7 | 20.9 | 0.00 | 0.00 | 0.00 | 57 | 1014.4 |
| 20260502055205 | 12 | 299 | 9.7 | 19.3 | 0.00 | 0.00 | 0.00 | 57 | 1014.3 |
| 20260502054704 | 12 | 327 | 12.9 | 22.5 | 0.00 | 0.00 | 0.00 | 56 | 1014.3 |
| 20260502053205 | 12 | 307 | 11.3 | 22.5 | 0.00 | 0.00 | 0.00 | 55 | 1014.2 |
| 20260502052704 | 12 | 308 | 12.9 | 22.5 | 0.00 | 0.00 | 0.00 | 55 | 1014.2 |
| 20260502052204 | 12 | 325 | 11.3 | 24.1 | 0.00 | 0.00 | 0.00 | 54 | 1014.2 |
| 20260502051704 | 12 | 325 | 12.9 | 24.1 | 0.00 | 0.00 | 0.00 | 54 | 1014.2 |
| 20260502050704 | 12 | 304 | 14.5 | 29.0 | 0.00 | 0.00 | 0.00 | 54 | 1014.2 |
| 20260502050204 | 12 | 349 | 14.5 | 29.0 | 0.00 | 0.00 | 0.00 | 53 | 1014.3 |
| 20260502045705 | 13 | 315 | 11.3 | 25.7 | 0.00 | 0.00 | 0.00 | 53 | 1014.4 |
| 20260502045205 | 13 | 335 | 14.5 | 25.7 | 0.00 | 0.00 | 0.00 | 54 | 1014.4 |
| 20260502044704 | 13 | 353 | 14.5 | 24.1 | 0.00 | 0.00 | 0.00 | 53 | 1014.4 |
| 20260502044204 | 13 | 331 | 14.5 | 24.1 | 0.00 | 0.00 | 0.00 | 55 | 1014.3 |
| 20260502043704 | 13 | 310 | 14.5 | 27.4 | 0.00 | 0.00 | 0.00 | 54 | 1014.2 |
| 20260502043204 | 13 | 320 | 11.3 | 33.8 | 0.00 | 0.00 | 0.00 | 55 | 1014.0 |
| 20260502041704 | 13 | 333 | 12.9 | 24.1 | 0.00 | 0.00 | 0.00 | 54 | 1014.0 |
| 20260502041204 | 13 | 333 | 14.5 | 24.1 | 0.00 | 0.00 | 0.00 | 54 | 1014.0 |
| 20260502040704 | 13 | 316 | 9.7 | 16.1 | 0.00 | 0.00 | 0.00 | 56 | 1013.9 |
| 20260502040205 | 13 | 336 | 4.8 | 24.1 | 0.00 | 0.00 | 0.00 | 56 | 1013.9 |
| 20260502035704 | 14 | 332 | 6.4 | 24.1 | 0.00 | 0.00 | 0.00 | 55 | 1014.0 |
| 20260502034705 | 14 | 307 | 1.6 | 11.3 | 0.00 | 0.00 | 0.00 | 54 | 1013.9 |
| 20260502034204 | 14 | 339 | 1.6 | 9.7 | 0.00 | 0.00 | 0.00 | 54 | 1014.0 |
| 20260502033704 | 14 | 7 | 1.6 | 16.1 | 0.00 | 0.00 | 0.00 | 53 | 1013.9 |
| 20260502033205 | 15 | 319 | 6.4 | 16.1 | 0.00 | 0.00 | 0.00 | 54 | 1013.8 |
| 20260502032705 | 14 | 306 | 11.3 | 16.1 | 0.00 | 0.00 | 0.00 | 53 | 1013.7 |
| 20260502032204 | 15 | 334 | 9.7 | 19.3 | 0.00 | 0.00 | 0.00 | 52 | 1013.5 |
| 20260502031704 | 15 | 334 | 11.3 | 19.3 | 0.00 | 0.00 | 0.00 | 52 | 1013.5 |
| 20260502030704 | 15 | 328 | 9.7 | 24.1 | 0.00 | 0.00 | 0.00 | 51 | 1013.3 |
| 20260502025705 | 15 | 310 | 14.5 | 25.7 | 0.00 | 0.00 | 0.00 | 49 | 1013.2 |
| 20260502025205 | 15 | 327 | 11.3 | 25.7 | 0.00 | 0.00 | 0.00 | 49 | 1013.2 |
| 20260502024704 | 15 | 339 | 8.0 | 22.5 | 0.00 | 0.00 | 0.00 | 49 | 1013.2 |
| 20260502024204 | 15 | 358 | 8.0 | 20.9 | 0.00 | 0.00 | 0.00 | 50 | 1013.1 |
| 20260502023704 | 15 | 321 | 11.3 | 20.9 | 0.00 | 0.00 | 0.00 | 50 | 1013.0 |
| 20260502023205 | 15 | 0 | 4.8 | 19.3 | 0.00 | 0.00 | 0.00 | 54 | 1012.9 |
| 20260502022704 | 15 | 316 | 3.2 | 12.9 | 0.00 | 0.00 | 0.00 | 56 | 1012.8 |
| 20260502022205 | 15 | 314 | 4.8 | 12.9 | 0.00 | 0.00 | 0.00 | 57 | 1012.6 |
| 20260502021704 | 15 | 109 | 0.0 | 0.0 | 0.00 | 0.00 | 0.00 | 58 | 1012.4 |
| 20260502020204 | 15 | 109 | 3.2 | 9.7 | 0.00 | 0.00 | 0.00 | 57 | 1012.0 |
| 20260502015204 | 15 | 166 | 1.6 | 4.8 | 0.00 | 0.00 | 0.00 | 57 | 1012.0 |
| 20260502014705 | 15 | 82 | 0.0 | 0.0 | 0.00 | 0.00 | 0.00 | 57 | 1012.0 |
| 20260502014204 | 15 | 82 | 0.0 | 4.8 | 0.00 | 0.00 | 0.00 | 58 | 1012.0 |
| 20260502013705 | 15 | 82 | 0.0 | 4.8 | 0.00 | 0.00 | 0.00 | 59 | 1012.0 |
| 20260502013204 | 15 | 97 | 0.0 | 4.8 | 0.00 | 0.00 | 0.00 | 58 | 1012.0 |
| 20260502012205 | 15 | 83 | 0.0 | 0.0 | 0.00 | 0.00 | 0.00 | 57 | 1011.7 |
| 20260502011704 | 15 | 83 | 0.0 | 0.0 | 0.00 | 0.00 | 0.00 | 56 | 1011.7 |
| 20260502011205 | 15 | 83 | 0.0 | 3.2 | 0.00 | 0.00 | 0.00 | 55 | 1011.5 |
| 20260502010704 | 15 | 83 | 0.0 | 4.8 | 0.00 | 0.00 | 0.00 | 53 | 1011.5 |
| 20260502010204 | 15 | 83 | 3.2 | 8.0 | 0.00 | 0.00 | 0.00 | 53 | 1011.5 |
| 20260502005704 | 15 | 142 | 0.0 | 8.0 | 0.00 | 0.00 | 0.00 | 52 | 1011.4 |
| 20260502005204 | 16 | 160 | 0.0 | 11.3 | 0.00 | 0.00 | 0.00 | 51 | 1011.3 |
| 20260502004705 | 16 | 160 | 3.2 | 11.3 | 0.00 | 0.00 | 0.00 | 51 | 1011.2 |
| 20260502003705 | 16 | 181 | 1.6 | 8.0 | 0.00 | 0.00 | 0.00 | 51 | 1011.2 |
| 20260502002705 | 16 | 144 | 0.0 | 12.9 | 0.00 | 0.00 | 0.00 | 50 | 1011.1 |
| 20260502002206 | 16 | 177 | 3.2 | 12.9 | 0.00 | 0.00 | 0.00 | 48 | 1011.0 |
| 20260502001704 | 16 | 121 | 4.8 | 9.7 | 0.00 | 0.00 | 0.00 | 47 | 1010.9 |
| 20260502001204 | 17 | 344 | 0.0 | 3.2 | 0.00 | 0.00 | 0.00 | 49 | 1010.9 |
| 20260502000705 | 17 | 344 | 0.0 | 11.3 | 0.00 | 0.00 | 0.00 | 48 | 1010.8 |
| 20260501235704 | 16 | 119 | 1.6 | 20.9 | 0.00 | 0.00 | 0.00 | 47 | 1010.4 |
| 20260501235204 | 17 | 171 | 4.8 | 20.9 | 0.00 | 0.00 | 0.00 | 45 | 1010.2 |
| 20260501234706 | 17 | 162 | 4.8 | 12.9 | 0.00 | 0.00 | 0.00 | 46 | 1010.0 |
| 20260501234205 | 17 | 163 | 1.6 | 12.9 | 0.00 | 0.00 | 0.00 | 47 | 1010.1 |
| 20260501233205 | 17 | 151 | 6.4 | 16.1 | 0.00 | 0.00 | 0.00 | 44 | 1010.1 |
| 20260501232704 | 17 | 141 | 3.2 | 16.1 | 0.00 | 0.00 | 0.00 | 44 | 1010.1 |
| 20260501232205 | 17 | 155 | 4.8 | 19.3 | 0.00 | 0.00 | 0.00 | 43 | 1010.2 |
| 20260501231705 | 17 | 115 | 3.2 | 19.3 | 0.00 | 0.00 | 0.00 | 43 | 1010.1 |
| 20260501231205 | 18 | 118 | 9.7 | 19.3 | 0.00 | 0.00 | 0.00 | 42 | 1010.2 |
| 20260501230704 | 18 | 145 | 11.3 | 19.3 | 0.00 | 0.00 | 0.00 | 42 | 1010.1 |
| 20260501230205 | 18 | 149 | 9.7 | 16.1 | 0.00 | 0.00 | 0.00 | 41 | 1010.1 |
| 20260501225704 | 18 | 174 | 4.8 | 14.5 | 0.00 | 0.00 | 0.00 | 41 | 1010.1 |
| 20260501225204 | 18 | 177 | 4.8 | 24.1 | 0.00 | 0.00 | 0.00 | 40 | 1010.1 |
| 20260501224705 | 18 | 148 | 3.2 | 24.1 | 0.00 | 0.00 | 0.00 | 41 | 1010.1 |
| 20260501224205 | 18 | 157 | 9.7 | 16.1 | 0.00 | 0.00 | 0.00 | 40 | 1010.1 |
| 20260501223704 | 18 | 193 | 8.0 | 16.1 | 0.00 | 0.00 | 0.00 | 40 | 1010.1 |
| 20260501223204 | 18 | 146 | 6.4 | 22.5 | 0.00 | 0.00 | 0.00 | 40 | 1010.1 |
| 20260501222705 | 18 | 185 | 9.7 | 22.5 | 0.00 | 0.00 | 0.00 | 38 | 1010.1 |
| 20260501222204 | 19 | 143 | 11.3 | 22.5 | 0.00 | 0.00 | 0.00 | 37 | 1010.2 |
| 20260501221704 | 18 | 150 | 9.7 | 22.5 | 0.00 | 0.00 | 0.00 | 38 | 1010.3 |
| 20260501221205 | 18 | 158 | 8.0 | 22.5 | 0.00 | 0.00 | 0.00 | 38 | 1010.3 |
| 20260501220704 | 18 | 171 | 12.9 | 22.5 | 0.00 | 0.00 | 0.00 | 37 | 1010.3 |
| 20260501220204 | 19 | 152 | 4.8 | 19.3 | 0.00 | 0.00 | 0.00 | 36 | 1010.3 |
| 20260501215204 | 19 | 115 | 6.4 | 22.5 | 0.00 | 0.00 | 0.00 | 36 | 1010.4 |
| 20260501214704 | 20 | 118 | 11.3 | 24.1 | 0.00 | 0.00 | 0.00 | 37 | 1010.4 |
| 20260501213705 | 20 | 143 | 12.9 | 25.7 | 0.00 | 0.00 | 0.00 | 35 | 1010.4 |
| 20260501213204 | 20 | 173 | 9.7 | 22.5 | 0.00 | 0.00 | 0.00 | 35 | 1010.6 |
| 20260501212704 | 20 | 176 | 14.5 | 22.5 | 0.00 | 0.00 | 0.00 | 35 | 1010.7 |
| 20260501211704 | 19 | 135 | 9.7 | 19.3 | 0.00 | 0.00 | 0.00 | 38 | 1010.7 |
| 20260501211205 | 18 | 146 | 8.0 | 20.9 | 0.00 | 0.00 | 0.00 | 38 | 1010.7 |
| 20260501210704 | 18 | 147 | 11.3 | 24.1 | 0.00 | 0.00 | 0.00 | 37 | 1010.8 |
| 20260501210204 | 19 | 150 | 16.1 | 24.1 | 0.00 | 0.00 | 0.00 | 36 | 1010.8 |
| 20260501205705 | 20 | 170 | 12.9 | 22.5 | 0.00 | 0.00 | 0.00 | 37 | 1010.8 |
| 20260501205204 | 20 | 186 | 11.3 | 25.7 | 0.00 | 0.00 | 0.00 | 37 | 1010.8 |
| 20260501204704 | 19 | 132 | 11.3 | 25.7 | 0.00 | 0.00 | 0.00 | 37 | 1010.9 |
| 20260501204204 | 19 | 154 | 11.3 | 24.1 | 0.00 | 0.00 | 0.00 | 36 | 1011.0 |
| 20260501203205 | 19 | 159 | 9.7 | 22.5 | 0.00 | 0.00 | 0.00 | 36 | 1011.0 |
| 20260501202704 | 19 | 160 | 8.0 | 22.5 | 0.00 | 0.00 | 0.00 | 38 | 1011.2 |
| 20260501202205 | 19 | 169 | 12.9 | 22.5 | 0.00 | 0.00 | 0.00 | 35 | 1011.2 |
| 20260501201704 | 20 | 140 | 9.7 | 20.9 | 0.00 | 0.00 | 0.00 | 33 | 1011.3 |
| 20260501201205 | 20 | 182 | 8.0 | 20.9 | 0.00 | 0.00 | 0.00 | 33 | 1011.4 |
| 20260501200704 | 20 | 174 | 9.7 | 20.9 | 0.00 | 0.00 | 0.00 | 33 | 1011.4 |
| 20260501200204 | 20 | 135 | 9.7 | 19.3 | 0.00 | 0.00 | 0.00 | 36 | 1011.7 |
| 20260501195204 | 20 | 188 | 9.7 | 20.9 | 0.00 | 0.00 | 0.00 | 36 | 1011.8 |
| 20260501194704 | 20 | 188 | 8.0 | 20.9 | 0.00 | 0.00 | 0.00 | 33 | 1012.0 |
| 20260501194205 | 20 | 122 | 4.8 | 19.3 | 0.00 | 0.00 | 0.00 | 37 | 1012.2 |
| 20260501193704 | 19 | 147 | 11.3 | 20.9 | 0.00 | 0.00 | 0.00 | 38 | 1012.3 |
| 20260501193204 | 19 | 153 | 6.4 | 20.9 | 0.00 | 0.00 | 0.00 | 34 | 1012.5 |
| 20260501192704 | 20 | 181 | 9.7 | 19.3 | 0.00 | 0.00 | 0.00 | 36 | 1012.4 |
| 20260501192204 | 18 | 189 | 4.8 | 16.1 | 0.00 | 0.00 | 0.00 | 33 | 1012.5 |
| 20260501190204 | 19 | 151 | 11.3 | 22.5 | 0.00 | 0.00 | 0.00 | 35 | 1012.9 |
| 20260501185704 | 18 | 159 | 9.7 | 22.5 | 0.00 | 0.00 | 0.00 | 37 | 1012.9 |
| 20260501185204 | 19 | 164 | 8.0 | 19.3 | 0.00 | 0.00 | 0.00 | 35 | 1013.1 |
| 20260501184705 | 19 | 154 | 8.0 | 19.3 | 0.00 | 0.00 | 0.00 | 36 | 1013.0 |
| 20260501184205 | 19 | 195 | 3.2 | 25.7 | 0.00 | 0.00 | 0.00 | 32 | 1013.1 |
| 20260501183204 | 18 | 176 | 8.0 | 22.5 | 0.00 | 0.00 | 0.00 | 38 | 1013.3 |
| 20260501182705 | 18 | 182 | 9.7 | 22.5 | 0.00 | 0.00 | 0.00 | 34 | 1013.4 |
| 20260501182204 | 18 | 238 | 9.7 | 22.5 | 0.00 | 0.00 | 0.00 | 36 | 1013.4 |
| 20260501181704 | 18 | 150 | 9.7 | 20.9 | 0.00 | 0.00 | 0.00 | 37 | 1013.5 |
| 20260501181204 | 18 | 132 | 11.3 | 20.9 | 0.00 | 0.00 | 0.00 | 37 | 1013.6 |
| 20260501180704 | 18 | 195 | 4.8 | 22.5 | 0.00 | 0.00 | 0.00 | 40 | 1013.6 |
| 20260501180204 | 18 | 205 | 6.4 | 22.5 | 0.00 | 0.00 | 0.00 | 36 | 1013.8 |
| 20260501175705 | 18 | 174 | 11.3 | 20.9 | 0.00 | 0.00 | 0.00 | 38 | 1013.9 |
| 20260501175205 | 18 | 198 | 8.0 | 20.9 | 0.00 | 0.00 | 0.00 | 43 | 1013.9 |
| 20260501173704 | 17 | 58 | 3.2 | 16.1 | 0.00 | 0.00 | 0.00 | 39 | 1014.2 |
| 20260501173204 | 17 | 220 | 4.8 | 16.1 | 0.00 | 0.00 | 0.00 | 41 | 1014.3 |